SCP
1 1 1 1 1 0 0 0 0 0 0 0 0 0 0 0 0 0 0 0 0 0 1 1 1 1 1 1 1 1 1 0 0 0 0 0 0 0 0 0 0 0 0
1 1 1 1 1 0 0 0 0 0 0 0 0 0 0 0 0 0 0 0 0 0 0 1 1 1 1 1 1 1 1 1 0 0 0 0 0 0 0 0 0 0 0
1 1 1 1 1 0 0 0 0 0 0 0 0 0 0 0 0 0 0 0 0 0 0 0 0 1 1 1 0 1 1 1 0 0 0 0 0 0 0 0 0 0 0
2 2 2 1 1 0 0 0 0 0 0 0 0 0 0 0 0 0 0 0 0 0 0 0 0 0 0 0 0 0 1 1 1 0 0 0 0 0 0 0 0 0 0
3 2 2 2 1 1 0 0 0 0 0 0 0 0 0 0 0 0 0 0 0 0 0 0 0 0 0 0 0 1 1 1 1 0 0 0 0 0 0 0 0 0 0
2 3 3 2 1 1 0 0 0 0 0 0 0 0 0 0 0 0 0 0 0 0 0 0 0 0 0 0 1 1 1 1 1 1 0 0 0 0 0 0 0 0 0
2 2 2 2 1 1 0 0 0 0 0 0 0 0 0 0 0 0 0 0 0 0 0 0 0 0 1 1 1 1 1 1 1 1 1 0 0 0 0 0 0 0 0
1 2 2 2 2 1 1 0 0 0 0 0 0 0 0 0 0 0 0 0 0 0 0 0 0 0 1 1 1 1 1 1 1 1 1 1 0 0 0 0 0 0 0
1 1 2 2 2 1 1 0 0 0 0 0 0 0 0 0 0 0 0 0 0 0 0 0 0 0 0 1 1 1 1 1 1 1 1 1 1 0 0 0 0 0 0
1 1 1 2 2 2 1 1 0 0 0 0 0 0 0 0 0 0 0 0 0 0 0 0 0 0 0 0 1 1 1 1 1 1 1 1 1 1 0 0 0 0 0
1 1 1 1 2 2 1 1 0 0 0 0 0 0 0 0 0 0 0 0 0 0 0 0 0 0 0 0 0 1 1 0 0 1 1 1 1 1 1 0 0 0 0
1 1 1 1 1 1 1 1 1 0 0 0 0 0 0 0 0 0 0 0 0 0 0 0 0 0 0 0 0 0 1 0 0 0 0 1 1 1 1 1 0 0 0
0 0 1 1 1 1 1 1 1 1 0 0 0 0 0 0 0 0 0 0 0 0 0 0 0 0 0 0 0 0 0 0 0 0 0 0 1 1 1 1 0 0 0
0 0 0 1 1 1 1 1 1 1 0 0 0 0 0 0 0 0 0 0 0 0 0 0 0 0 0 0 0 0 0 0 0 0 0 0 0 0 1 1 0 0 0
0 0 0 0 0 0 1 1 1 1 1 0 0 0 0 0 0 0 0 0 0 0 0 0 0 0 0 0 0 0 0 0 0 0 0 0 0 0 0 0 0 0 0
0 0 0 0 0 0 0 0 0 0 0 0 0 0 0 0 0 0 0 0 0 0 0 0 0 0 0 0 0 0 0 0 0 0 0 0 0 0 0 0 0 0 0
0 0 0 0 0 0 0 0 0 0 0 0 0 0 0 0 0 0 0 0 0 0 0 0 0 0 0 0 0 0 0 0 0 0 0 0 0 0 0 0 0 0 0
0 0 0 0 0 0 0 0 0 0 0 0 0 0 0 0 0 0 0 0 0 0 0 0 0 0 0 0 0 0 0 0 0 0 0 0 0 0 0 0 0 0 0
0 0 0 0 0 0 0 0 0 0 0 0 0 0 0 0 0 0 0 0 0 0 0 0 0 0 0 0 0 0 0 0 0 0 0 0 0 0 0 0 0 0 0
0 0 0 0 0 0 0 0 0 0 0 0 0 0 0 0 0 0 0 0 0 0 0 0 0 0 0 0 0 0 0 0 0 0 0 0 0 0 0 0 0 0 0
0 0 0 0 0 0 0 0 0 0 0 0 0 0 0 0 0 0 0 0 0 0 0 0 0 0 0 0 0 0 0 0 0 0 0 0 0 0 0 0 0 0 0
0 0 0 0 0 0 0 0 0 0 0 0 0 0 0 0 0 0 0 0 0 0 0 0 0 0 0 0 0 0 0 0 0 0 0 0 0 0 0 0 0 0 0
0 0 0 0 0 0 0 0 0 0 0 0 0 0 0 0 0 0 0 0 0 0 0 0 0 0 0 0 0 0 0 0 0 0 0 0 0 0 0 0 0 0 0
0 0 0 0 0 0 0 0 0 0 0 0 0 0 0 0 0 0 0 0 0 0 0 0 0 0 0 0 0 0 0 0 0 0 0 0 0 0 0 0 0 0 0
0 0 0 0 0 0 0 0 0 0 0 0 0 0 0 0 0 0 0 0 0 0 0 0 0 0 0 0 0 0 0 0 0 0 0 0 0 0 0 0 0 0 0
0 0 0 0 0 0 0 0 0 0 0 0 0 0 0 0 0 0 0 0 0 0 0 0 0 0 0 0 0 0 0 0 0 0 0 0 0 0 0 0 0 0 0
Wind_Speed
2 2 2 2 2 2 2 2 2 2 3 2 2 3 4 3 3 3 3 7 8 7 7 7 6 6 5 5 6 6 6 6 6 7 7 7 7 8 7 8 8 8 8
2 2 2 2 2 2 2 2 2 2 2 2 2 3 3 3 3 4 3 4 7 7 7 7 6 6 6 6 6 6 6 6 5 6 7 7 8 8 8 8 8 8 9
2 2 2 2 2 2 2 2 2 2 2 2 2 2 2 3 3 3 3 2 3 5 6 7 7 6 6 6 6 6 6 6 5 6 6 7 7 7 7 7 8 8 9
2 2 2 2 2 2 1 1 1 1 2 1 2 2 2 2 2 2 2 2 2 2 4 6 6 6 6 6 6 6 6 6 6 6 6 6 6 6 7 7 8 8 9
2 2 2 1 2 2 1 1 1 1 1 1 1 1 1 1 1 1 2 2 2 2 2 3 5 6 6 6 6 6 6 6 6 6 6 6 6 6 6 7 7 8 8
2 2 2 2 2 1 1 1 1 1 1 1 1 1 0 0 0 1 1 1 2 2 2 2 2 3 6 7 7 7 6 6 6 6 6 6 7 7 7 7 7 8 9
2 2 1 1 1 1 1 1 1 1 1 1 1 1 1 1 1 1 1 1 1 1 1 1 1 1 2 5 6 7 7 7 6 6 6 6 6 7 7 7 8 8 9
2 2 2 1 1 1 1 1 1 1 0 1 1 0 1 1 1 1 1 1 1 1 0 0 0 1 1 1 3 6 7 8 8 7 7 7 7 7 8 8 8 9 9
2 2 2 2 1 1 1 1 1 2 1 0 1 1 1 1 1 1 1 1 1 1 1 1 0 0 1 0 1 3 6 8 8 8 8 8 8 8 8 9 9 9 10
2 2 2 2 2 1 1 1 1 1 1 1 1 1 0 1 1 1 2 1 1 1 1 1 1 1 1 1 2 4 6 8 8 9 8 8 9 9 9 9 10 10 10
2 2 2 2 2 1 2 1 1 1 1 1 1 0 1 1 1 1 2 2 1 1 1 1 1 1 1 1 1 3 6 7 8 9 9 9 9 9 9 9 10 11 11
2 2 2 2 2 2 2 2 2 1 1 1 1 1 1 1 1 1 1 2 2 2 2 2 2 1 1 1 2 4 6 7 7 8 9 8 9 10 10 10 10 11 11
1 2 2 2 2 2 2 2 2 2 2 2 2 1 1 1 1 1 1 2 2 2 2 2 2 1 1 1 1 5 6 7 8 9 9 8 9 9 10 10 10 11 11
2 2 3 3 3 2 2 2 2 3 2 2 2 2 2 2 1 1 1 1 2 2 2 3 1 1 1 1 2 5 4 8 8 9 9 8 9 9 9 10 10 11 11
1 2 2 3 3 2 2 2 2 2 2 2 2 2 2 1 1 1 1 1 2 2 3 2 1 1 1 1 3 3 3 6 8 9 9 8 8 9 9 9 10 10 10
1 1 2 2 2 2 2 2 2 2 2 2 2 2 2 1 1 1 2 2 2 3 3 2 2 2 2 3 5 3 3 7 8 9 9 9 8 8 9 9 9 10 10
2 2 2 2 2 2 2 2 2 2 2 3 3 3 3 2 2 2 2 2 2 2 4 4 2 2 3 3 4 3 3 3 3 8 10 9 8 8 8 8 9 9 10
2 2 2 3 3 3 3 3 3 2 3 3 3 3 4 3 3 3 2 3 3 3 3 5 3 2 3 3 3 4 4 3 3 7 9 9 8 8 8 8 8 9 9
2 2 2 3 3 3 3 3 3 3 3 3 3 4 4 4 4 3 3 3 3 3 3 3 3 2 2 2 3 4 4 3 4 5 8 8 8 8 8 8 8 9 9
2 2 2 2 3 3 3 2 3 3 2 3 3 3 4 4 4 4 4 3 3 3 2 3 3 3 2 2 2 3 4 3 4 4 5 6 7 8 8 9 8 9 9
2 2 2 2 2 2 2 3 3 3 3 3 3 3 3 5 5 4 4 3 3 3 3 3 3 3 3 2 2 2 4 4 4 3 3 3 3 3 3 6 7 8 8
2 2 2 2 3 2 3 4 3 2 2 3 3 3 3 3 4 6 6 5 4 3 3 3 3 3 4 3 3 3 3 3 4 2 3 4 2 3 3 3 7 8 8
2 2 2 3 3 3 4 4 3 2 3 3 3 3 3 3 3 2 4 5 5 5 6 4 4 5 4 4 3 3 3 3 4 3 3 4 2 3 4 5 8 9 9
2 2 3 3 2 3 4 4 3 2 2 3 3 3 3 3 3 3 3 3 3 3 4 4 4 5 4 3 4 4 4 4 4 3 2 3 3 3 4 3 7 9 9
2 2 2 2 2 2 3 3 3 1 2 2 3 3 3 3 5 4 3 3 3 3 3 5 6 6 7 7 5 2 2 3 4 3 1 1 2 3 3 3 4 7 8
2 2 2 2 2 2 3 4 3 1 2 2 2 2 4 4 5 5 3 3 3 3 3 3 4 5 4 5 6 3 3 3 3 3 1 1 1 2 3 2 2 3 4
Wind_Direction
61 57 57 55 62 58 45 37 44 51 47 35 42 48 37 35 50 71 72 65 57 51 50 52 54 52 47 42 41 39 35 32 28 25 22 17 13 11 8 6 5 2 0
74 66 63 57 54 50 39 40 39 47 51 40 43 47 47 36 45 62 79 70 59 50 43 39 41 39 38 35 31 29 26 25 23 19 16 13 11 6 3 3 4 3 359
78 80 77 67 58 52 43 43 38 42 47 37 36 40 47 50 52 59 63 72 63 52 45 34 27 25 23 20 20 19 16 16 16 18 16 13 10 4 360 357 355 351 348
79 83 87 78 61 60 50 58 63 57 47 32 24 24 36 45 57 59 60 66 64 53 39 32 23 17 13 10 10 11 13 12 14 15 8 4 1 358 355 353 350 347 344
83 90 93 88 75 73 60 52 60 63 54 23 3 11 30 56 61 70 70 66 68 61 47 29 25 16 10 6 2 1 2 5 6 6 1 357 353 348 343 340 341 341 339
89 88 92 82 81 88 67 63 68 61 72 27 353 356 329 162 106 101 95 79 81 69 57 38 20 7 10 2 355 353 355 355 354 353 350 347 344 342 337 334 336 336 333
108 107 100 105 100 114 116 95 85 87 52 33 35 349 316 232 142 160 133 111 97 91 82 58 32 17 356 357 350 348 347 346 345 339 335 335 335 336 332 329 328 326 324
132 128 129 139 138 130 121 114 104 97 70 69 97 37 310 316 290 212 160 159 159 120 116 81 58 31 349 333 335 342 338 337 334 332 329 330 329 327 326 326 324 322 323
137 134 146 148 154 149 160 162 145 131 171 264 66 139 160 243 310 284 222 191 181 186 219 216 207 276 306 298 305 328 332 325 325 325 323 323 324 324 324 326 326 322 321
155 154 153 155 157 157 153 176 153 146 149 199 295 321 167 165 175 302 300 261 221 225 239 265 247 253 276 268 300 329 328 321 318 320 319 319 319 320 321 324 327 328 321
176 171 168 166 168 168 163 159 162 156 169 175 187 238 302 318 237 190 266 292 306 279 258 251 240 237 249 248 257 306 320 320 316 316 313 312 313 317 318 323 326 326 323
192 187 182 173 175 176 184 185 182 180 187 187 197 188 175 198 237 221 245 274 279 274 272 256 245 231 240 242 273 310 311 314 314 314 312 309 310 312 314 318 319 319 320
207 206 195 190 191 192 191 184 187 196 196 197 211 218 210 222 223 223 230 272 285 283 275 265 243 229 254 253 278 311 298 301 306 309 311 310 310 311 313 312 312 315 316
210 204 205 198 196 195 199 194 197 202 195 201 218 218 215 223 215 217 210 230 294 290 270 266 277 227 256 276 282 301 289 299 303 307 310 307 308 310 311 312 312 312 314
204 201 208 202 195 198 200 193 204 208 198 201 217 225 224 223 212 233 234 201 207 265 277 267 275 284 290 281 288 283 274 296 302 304 307 306 304 307 310 311 312 313 314
212 209 215 211 197 202 204 200 207 214 210 210 209 218 229 229 228 226 231 236 224 231 259 273 273 294 302 308 305 302 281 299 300 304 305 303 302 307 309 310 311 312 314
215 218 218 209 199 203 204 196 201 203 221 229 220 219 227 220 229 234 231 232 235 230 254 276 281 295 301 301 305 298 292 285 284 299 302 300 304 307 310 313 314 314 315
222 220 217 211 207 202 195 192 206 212 217 227 228 224 225 226 230 230 228 236 238 233 243 267 277 278 283 286 293 297 305 304 286 295 302 300 301 305 307 310 313 314 315
234 230 217 208 210 207 202 199 200 208 217 226 225 227 228 223 234 234 232 237 243 254 245 252 270 274 280 295 301 298 295 295 299 299 299 296 300 304 309 313 316 315 315
221 226 225 215 211 205 195 198 198 205 216 227 229 226 226 224 229 229 235 237 242 250 249 252 267 274 278 289 295 297 304 303 302 304 305 301 298 302 306 311 312 314 315
218 218 221 222 218 208 198 194 200 211 213 229 238 239 236 235 238 236 237 227 229 240 246 253 263 276 275 287 283 287 290 302 299 291 306 298 298 294 295 301 305 310 313
221 222 226 225 222 222 217 219 217 220 223 230 242 244 247 246 252 259 258 253 240 232 233 243 259 264 272 273 280 285 289 305 298 300 304 295 295 292 292 284 298 307 311
225 225 231 233 229 223 226 232 233 227 230 235 237 242 260 261 262 246 256 266 263 257 249 244 250 256 265 265 269 280 281 284 280 289 300 287 284 282 288 291 301 308 310
232 233 238 238 236 233 231 233 238 233 236 241 240 236 237 244 248 241 232 244 251 258 258 252 243 251 255 254 246 256 266 280 283 281 275 275 288 288 292 285 296 309 314
241 240 240 235 231 235 243 249 247 219 236 251 251 246 238 240 254 256 242 241 252 261 266 260 261 266 276 282 281 274 278 286 290 286 278 264 288 303 291 277 293 315 322
234 238 245 236 230 231 253 258 252 216 242 259 262 254 250 254 260 265 250 237 248 256 260 269 264 268 270 274 276 255 243 263 281 279 265 276 286 329 312 292 294 311 314